Home   Weather   Perth   Past weeks

Flag for United Kingdom Past Weather in Perth, Scotland, United Kingdom — Yesterday and Last 2 Weeks

Now
45 °F

Passing clouds.


Feels Like: 41 °F
Forecast: N/A
Wind: 6 mph from Southwest

Location: Dundee / Riverside

Current Time: Jan 24, 2017 at 5:49:13 pm

Latest Report: Jan 24, 2017 at 4:50 pm


Visibility: N/A

Pressure: 30.09 "Hg

Humidity: 100%

Dew Point: 45 °F

Location of PerthLocation

Past Weather in Perth — Graph

°F

Perth Temperature Yesterday

Maximum temperature yesterday: 43 °F (at 10:50 am)
Minimum temperature yesterday: 37 °F (at 6:20 am)
Average temperature yesterday: 40 °F

High & Low Weather Summary for the Past Weeks

 TemperatureHumidityPressure
High52 °F (Jan 17, 12:50 pm)100% (Jan 10, 3:50 pm)30.57 "Hg (Jan 10, 3:50 pm)
Low28 °F (Jan 13, 7:20 pm)60% (Jan 13, 1:20 pm)29.33 "Hg (Jan 11, 6:20 am)
Average41 °F89%30.07 "Hg
* Reported Jan 9 4:20 pm — Jan 24 4:50 pm, Perth, Weather by CustomWeather, © 2017

Note: Actual official high and low records may vary slightly from our data, if they occured in-between our weather recording intervals... More about our weather records

Advertising

Perth Weather History for the Previous 24 Hours

Scroll right to see more
 ConditionsComfort  
Time TempWeatherWind HumidityBarometerVisibility
4:50 pm
Tue, Jan 24
45 °FPassing clouds.6 mph100%30.09 "HgN/A
4:20 pm45 °FPartly sunny.6 mph100%30.09 "HgN/A
3:50 pm45 °FPartly sunny.7 mph93%30.09 "HgN/A
3:20 pm45 °FPartly sunny.10 mph93%30.09 "HgN/A
2:50 pm46 °FPartly sunny.7 mph93%30.09 "HgN/A
2:20 pm46 °FPartly sunny.13 mph93%30.09 "HgN/A
1:50 pm46 °FPartly sunny.12 mph93%30.09 "HgN/A
1:20 pm46 °FPartly sunny.10 mph93%30.09 "HgN/A
12:50 pm46 °FPartly sunny.14 mph93%30.09 "HgN/A
12:20 pm46 °FPartly sunny.14 mph93%30.09 "HgN/A
11:50 am46 °FScattered clouds.10 mph87%30.09 "HgN/A
11:20 am46 °FScattered clouds.13 mph87%30.09 "HgN/A
10:50 am45 °FScattered clouds.12 mph93%30.09 "HgN/A
10:20 am45 °FScattered clouds.18 mph93%30.09 "HgN/A
9:50 am45 °FScattered clouds.16 mph93%30.09 "HgN/A
9:20 am45 °FScattered clouds.15 mph93%30.07 "HgN/A
8:50 am45 °FPartly sunny.16 mph93%30.07 "HgN/A
8:20 pm
Mon, Jan 23
39 °FPassing clouds.1 mph87%30.15 "Hg6 mi
7:50 pm39 °FPassing clouds.2 mph87%30.15 "Hg6 mi
7:20 pm39 °FPassing clouds.2 mph87%30.15 "Hg6 mi
6:50 pm39 °FPassing clouds.5 mph81%30.18 "Hg6 mi
6:20 pm39 °FPassing clouds.3 mph87%30.18 "Hg6 mi
5:50 pm39 °FPassing clouds.5 mph87%30.18 "Hg6 mi
5:20 pm41 °FPassing clouds.6 mph81%30.18 "Hg6 mi
Weather by CustomWeather, © 2017

See weather overviewHow to use our weather pages